Zurück zum Katalog

FENGYUN 1C DEB

AktivPO
NORAD 31428·DEBRIS·🇨🇳 China

Gestartet May 10, 1999 von Taiyuan Satellite Launch Center

Loading…

Nächste Überflüge (nächste 24 Stunden)

TLE

AktuellSource: Space-Track

Epoche: Sep 14, 2026, 18:38 UTC

1 31428U 99025BTQ 26257.77668844  .00001577  00000-0  47088-3 0  9995
2 31428  99.0615 251.1565 0063693  58.0369 116.5314 14.43351265 14519

Verfolge FENGYUN 1C DEB in Echtzeit mit AllMySat

Download on the App Store